2023/09/16 00:00:00, 3.5,22.5
2023/09/16 00:10:00, 3.4,22.7
2023/09/16 00:20:00, 3.4,22.3
2023/09/16 00:30:00, 3.4,22.6
2023/09/16 00:40:00, 3.2,22.6
2023/09/16 00:50:00, 3.1,22.6
2023/09/16 01:00:00, 2.9,22.8
2023/09/16 01:10:00, 2.8,22.6
2023/09/16 01:20:00, 3.0,22.3
2023/09/16 01:30:00, 2.8,22.3
2023/09/16 01:40:00, 2.5,22.1
2023/09/16 01:50:00, 2.6,22.2
2023/09/16 02:00:00, 2.7,22.2
2023/09/16 02:10:00, 2.7,22.2
2023/09/16 02:20:00, 2.7,22.3
2023/09/16 02:30:00, 2.8,22.2
2023/09/16 02:40:00, 3.3,22.0
2023/09/16 02:50:00, 3.7,21.8
2023/09/16 03:00:00, 3.9,21.9
2023/09/16 03:10:00, 4.1,21.9
2023/09/16 03:20:00, 4.2,21.7
2023/09/16 03:30:00, 4.3,21.9
2023/09/16 03:40:00, 4.4,21.9
2023/09/16 03:50:00, 4.5,21.8
2023/09/16 04:00:00, 4.4,21.4
2023/09/16 04:10:00, 4.5,21.6
2023/09/16 04:20:00, 4.5,21.5
2023/09/16 04:30:00, 4.5,21.5
2023/09/16 04:40:00, 4.4,21.4
2023/09/16 04:50:00, 4.4,21.3
2023/09/16 05:00:00, 4.3,21.6
2023/09/16 05:10:00, 4.2,21.5
2023/09/16 05:20:00, 4.1,21.5
2023/09/16 05:30:00, 3.9,21.5
2023/09/16 05:40:00, 3.9,21.5
2023/09/16 05:50:00, 3.9,21.5
2023/09/16 06:00:00, 3.9,21.1
2023/09/16 06:10:00, 3.9,21.7
2023/09/16 06:20:00, 4.0,21.8
2023/09/16 06:30:00, 4.1,22.0
2023/09/16 06:40:00, 4.4,22.5
2023/09/16 06:50:00, 4.4,23.0
2023/09/16 07:00:00, 4.4,23.7
2023/09/16 07:10:00, 4.4,26.0
2023/09/16 07:20:00, 4.4,27.6
2023/09/16 07:30:00, 4.4,28.4
2023/09/16 07:40:00, 4.4,29.7
2023/09/16 07:50:00, 4.4,29.8
2023/09/16 08:00:00, 4.2,30.6
2023/09/16 08:10:00, 4.1,31.9
2023/09/16 08:20:00, 4.3,32.5
2023/09/16 08:30:00, 4.4,32.4
2023/09/16 08:40:00, 4.7,33.5
2023/09/16 08:50:00, 4.8,33.7
2023/09/16 09:00:00, 4.7,33.9
2023/09/16 09:10:00, 4.7,34.1
2023/09/16 09:20:00, 4.8,33.3
2023/09/16 09:30:00, 4.9,32.6
2023/09/16 09:40:00, 4.8,32.1
2023/09/16 09:50:00, 5.1,31.8
2023/09/16 10:00:00, 5.3,31.9
2023/09/16 10:10:00, 5.5,32.4
2023/09/16 10:20:00, 5.3,32.8
2023/09/16 10:30:00, 5.5,32.4
2023/09/16 10:40:00, 7.3,30.9
2023/09/16 10:50:00, 7.8,30.5
2023/09/16 11:00:00, 6.4,30.8
2023/09/16 11:10:00, 5.7,29.2
2023/09/16 11:20:00, 5.4,31.0
2023/09/16 11:30:00, 5.4,32.0
2023/09/16 11:40:00, 5.5,32.3
2023/09/16 11:50:00, 5.5,32.1
2023/09/16 12:00:00, 5.5,32.3
2023/09/16 12:10:00, 5.5,32.1
2023/09/16 12:20:00, 5.5,32.9
2023/09/16 12:30:00, 5.3,31.0
2023/09/16 12:40:00, 5.0,29.7
2023/09/16 12:50:00, 5.0,29.1
2023/09/16 13:00:00, 5.0,29.0
2023/09/16 13:10:00, 5.2,29.3
2023/09/16 13:20:00, 5.2,29.1
2023/09/16 13:30:00, 5.2,29.0
2023/09/16 13:40:00, 5.3,29.5
2023/09/16 13:50:00, 5.2,28.7
2023/09/16 14:00:00, 5.0,28.5
2023/09/16 14:10:00, 4.9,28.4
2023/09/16 14:20:00, 5.1,28.4
2023/09/16 14:30:00, 5.3,28.0
2023/09/16 14:40:00, 5.3,27.9
2023/09/16 14:50:00, 5.2,27.8
2023/09/16 15:00:00, 5.2,27.6
2023/09/16 15:10:00, 5.2,27.6
2023/09/16 15:20:00, 5.3,27.4
2023/09/16 15:30:00, 5.3,28.1
2023/09/16 15:40:00, 5.3,27.3
2023/09/16 15:50:00, 6.0,27.6
2023/09/16 16:00:00, 6.4,29.5
2023/09/16 16:10:00, 7.0,30.1
2023/09/16 16:20:00, 7.1,30.4
2023/09/16 16:30:00, 7.0,29.0
2023/09/16 16:40:00, 6.7,29.4
2023/09/16 16:50:00, 5.4,28.3
2023/09/16 17:00:00, 5.6,26.9
2023/09/16 17:10:00, 5.8,26.3
2023/09/16 17:20:00, 5.3,26.2
2023/09/16 17:30:00, 2.7,26.1
2023/09/16 17:40:00, 3.4,26.0
2023/09/16 17:50:00, 5.2,26.1
2023/09/16 18:00:00, 6.0,25.8
2023/09/16 18:10:00, 2.7,25.6
2023/09/16 18:20:00, 0.3,25.4
2023/09/16 18:30:00, 0.3,25.4
2023/09/16 18:40:00, 0.3,25.0
2023/09/16 18:50:00, 1.0,25.1
2023/09/16 19:00:00, 0.5,25.1
2023/09/16 19:10:00, 0.3,24.9
2023/09/16 19:20:00, 0.3,25.1
2023/09/16 19:30:00, 0.3,24.8
2023/09/16 19:40:00, 0.3,24.7
2023/09/16 19:50:00, 0.4,24.6
2023/09/16 20:00:00, 4.1,24.3
2023/09/16 20:10:00, 6.0,24.1
2023/09/16 20:20:00, 5.8,24.0
2023/09/16 20:30:00, 5.8,24.0
2023/09/16 20:40:00, 5.7,23.9
2023/09/16 20:50:00, 5.4,24.0
2023/09/16 21:00:00, 1.5,23.8
2023/09/16 21:10:00, 0.3,23.7
2023/09/16 21:20:00, 3.5,23.7
2023/09/16 21:30:00, 5.4,23.7
2023/09/16 21:40:00, 5.9,23.6
2023/09/16 21:50:00, 5.9,23.8
2023/09/16 22:00:00, 5.9,23.5
2023/09/16 22:10:00, 4.0,23.4
2023/09/16 22:20:00, 0.7,23.1
2023/09/16 22:30:00, 0.3,23.0
2023/09/16 22:40:00, 0.3,23.0
2023/09/16 22:50:00, 0.3,22.9
2023/09/16 23:00:00, 0.2,22.6
2023/09/16 23:10:00, 0.2,22.6
2023/09/16 23:20:00, 0.2,22.7
2023/09/16 23:30:00, 0.2,22.7
2023/09/16 23:40:00, 0.2,22.5
2023/09/16 23:50:00, 0.2,22.7
